Regional Weather Roundup
Issued by NWS

Home | Current Version | Previous Version | Graphics & Text | Print | Product List | Glossary Off
Versions: 1 2 3 4 5 6 7 8 9 10 11 12 13 14 15 16 17 18 19 20 21 22 23 24 25 26 27 28 29 30 31 32 33 34 35 36 37 38 39 40 41 42 43 44 45 46 47 48 49 50

000
ASUS43 KTOP 200959
RWRKS

WEATHER ROUNDUP FOR KANSAS
NATIONAL WEATHER SERVICE GOODLAND KS
400 AM CST MON FEB 20 2017

NOTE:  "FAIR" INDICATES FEW OR NO CLOUDS BELOW 12,000 FEET WITH NO
SIGNIFICANT WEATHER AND/OR OBSTRUCTIONS TO VISIBILITY.

KSZ001>006-013>018-027>032-041>047-201100-
NORTHWEST KANSAS

CITY           SKY/WX    TMP DP  RH WIND       PRES   REMARKS
GOODLAND       CLOUDY    49  33  54 NW23G32   29.71S
HAYS           CLOUDY    56  54  93 S14       29.71S FOG
HILL CITY      CLOUDY    52  46  80 SW6       29.71R
RUSSELL        CLOUDY    57  56  96 S22       29.70S
$$

KSZ061>065-074>080-084>089-201100-
SOUTHWEST KANSAS

CITY           SKY/WX    TMP DP  RH WIND       PRES   REMARKS
DODGE CITY     MOCLDY    53  40  61 S12       29.74S
ELKHART          N/A     43  24  47 W8          N/A
GARDEN CITY    CLOUDY    48  36  63 S8        29.72R
GREAT BEND     CLOUDY    57  55  93 S10       29.74S
LIBERAL        MOCLDY    46  30  53 S9        29.74F
$$

KSZ066>073-081>083-090>101-201100-
SOUTHEAST KANSAS

CITY           SKY/WX    TMP DP  RH WIND       PRES   REMARKS
CHANUTE        CLOUDY    64  54  69 S7        29.83F
COFFEYVILLE    CLOUDY    64  56  75 S7        29.82F
HUTCHINSON     CLOUDY    58  57  97 SE16G24   29.75F FOG
MEDICINE LODGE   N/A     57  56  96 S10       29.78S
NEWTON         CLOUDY    57  57 100 S14       29.79R FOG
PARSONS        CLOUDY    64  55  72 CALM      29.83S
WICHITA INTL   LGT RAIN  58  57  97 SE16      29.78F
WICHITA JABRA  LGT RAIN  58  58 100 S14       29.80R
WICHITA MCCONL LGT RAIN  57  57 100 S10       29.80F
WINFIELD       LGT RAIN  58  57  97 S8        29.82F
$$

KSZ007>012-019>026-033>040-048>060-102>105-201100-
NORTHEAST KANSAS

CITY           SKY/WX    TMP DP  RH WIND       PRES   REMARKS
CONCORDIA      CLOUDY    58  58 100 SE17      29.70F
EMPORIA        CLOUDY    57  57 100 SE12      29.79F
LAWRENCE       CLOUDY    65  56  72 S14       29.84R
MANHATTAN      MOCLDY    59  57  93 S12G22    29.74F
OLATHE IND     CLOUDY    63  54  72 SE17      29.83F
OLATHE EXE     CLOUDY    61  56  83 SE12      29.84F
SALINA         CLOUDY    60  57  89 S14       29.76R
TOPEKA BILLARD LGT RAIN  61  58  90 SE6       29.79F
TOPEKA FORBES  LGT RAIN  61  58  90 SE9       29.80F
$$




USA.gov is the U.S. government's official web portal to all federal, state and local government web resources and services.